MIDAS 4 DEB, 195

Orbit data source: Space-Track

MIDAS 4 DEB, 195 is space debris in LEO originally from a launch on Sat, 21 Oct 1961 UTC launched from the Air Force Western Test Range (AFWTR). Debris objects in space refer to the collection of defunct objects orbiting the Earth. Examples of debris include non-operational satellites, rocket bodies, and fragments generated from explosions, collisions, or faulty payload assembly.

Loading next visibility...
Identifier
195, 1961-028D
Orbit
LEO
Country
Flag of USUS
Related business
Manufacturer
Unknown
Mission
Spacecraft
Bus & Motor
Unknown
Mass
~10 kg wet, ~10 kg dry
Launch date (UTC)
1961-10-21 (64 years ago)
Launch vehicle
Unknown
Launch site
Air Force Western Test Range (AFWTR)
Object type
Payload
Rocket body
Debris
Shape & HBR
Unknown
Radar Cross Section
Medium (>0.1 m² and <1 m²)

Expand to show TLE details & history
Last TLE update: 9 hours ago

TLE from 9 hours ago
0 MIDAS 4 DEB
1 00195U 61028D   25261.11036199 -.00000007  00000-0 -13548-2 0  9990
2 00195  95.8484 147.4374 0128726 338.1414  21.3979  8.65621982 19485
Epoch: 2025-09-18T02:38Z
TLE epoch observation values (Epoch: 2025-09-18T02:38:55.275Z)
Latitude
-0.00007°
Longitude
110.43043°
Altitude
3,523.723 km
Speed
6.383 km/s
True Right ascension
09h 49m 44s
True Declination
0° 00' 00"
Sunlit
Object was in daylight at epoch
Visualization orbit readout
Latitude
Unknown
Longitude
Unknown
Altitude
Unknown
Speed
Unknown
Apparent Right ascension
Unknown
Apparent Declination
Unknown
Sunlit
N/A
Visualization observer readout
Local Sidereal Time
04:16:41
Azimuth
Unknown
Elevation
Unknown
Doppler factor
Unknown
Orbital elements
Apogee altitude
3,768.274 km
Perigee altitude
3,510.372 km
Semi-major axis
10,017.46 km
Eccentricity
0.01287
Inclination
95.8484°
RAAN
147.4374°
Arg. of periapsis
338.1414°
True anomaly
21.94425°
Mean anomaly
21.3979°
Eccentric anomaly
21.67025°
Mean motion
2.16475 °/min
Orbital period
166.3 mins
BSTAR
-0.0013548
Loading maneuver chart data...
Computing Atmospheric mass density...
Loading historical data...
Loading historical data...
Loading historical data...
Loading historical data...
Loading historical data...
Loading historical data...
Loading historical data...

Documentation

Showing up to 5 results
|